LiveATC.Net - Listen to live air traffic control over the Internet!


ICAO: KSLE  IATA: SLE   Airport: McNary Field Airport
City: Salem   State/Province: Oregon
Country: United States   Continent: North America
KSLE METAR Weather: KSLE 280456Z AUTO 20004KT 10SM CLR 14/10 A2996 RMK AO2 SLP146 T01440100
KSLE ADS-B Flight Tracking (ADSBExchange)
KSLE Flight Activity (FlightAware)
KSLE Airport Info   (iFlightPlanner)
KSLE VFR Sectional Chart   (iFlightPlanner) 
KSLE IFR Low Altitude Chart   (iFlightPlanner) 
KSLE IFR High Altitude Chart   (iFlightPlanner) 

KSLE Gnd/Twr
Feed Status: UP   Listeners: 0
Listen in your browser - HTML5 player (in browser, HTML5)
Click here to listen with your own player (launches your MP3 player)
Archive Access: KSLE Gnd/Twr
FacilityFrequency
Salem Ground121.900
Salem Tower119.100

NOTICE

Unauthorized use prohibited. See LiveATC.net Terms of Service


Airport/ARTCC Code
Frequency Search
(e.g., 124.400, 128.75)
Site-wide search
 


Browse Feeds
Top 50 Feeds
HF Oceanic Feeds
Coverage Map
Bad Weather Areas

LiveATC FAQ
Offer LiveATC feed
Contact LiveATC.net
Press Inquiries

LiveATC on iPhone
LiveATC on Android

LiveATC Mobile
(Mobile browser)

ATC Audio Archives
Interesting Recordings

LiveATC Forums


Home Page
About LiveATC.net


Terms of Use
Privacy Policy

AIRMETs/SIGMETs

FAA Airport Status
NAS Status
Arrival Demand


Server Software By:
Icecast.org
Liquidsoap